User: anonymous   Login
Location: Plymouth
(43.7570°N, 71.6890°W)
Time: 14:46:21
(UTC-04:00)
Language:

Cosmos 2016 Rocket - Orbit

View from above orbital plane
View from above orbital plane
View from above satellite
View from above satellite

Ground track
Ground track

The orbit data is extracted from the following two-line orbital elements,

1 19922U 89028B   16270.53384664  .00000154  00000-0  14043-3 0  9990
2 19922  82.9558 262.3557 0035026 263.9993 214.2354 13.77183709380940
Epoch (UTC): 26 September 2016 12:48:44
Eccentricity: 0.0035026
inclination: 82.9558°
perigee height: 948 km
apogee height: 999 km
right ascension of ascending node: 262.3557°
argument of perigee: 263.9993°
revolutions per day: 13.77183709
mean anomaly at epoch: 214.2354°
orbit number at epoch: 38094

The dashed part of the orbit path shows where the satellite is in the earth's shadow,  

DLR